Home > Weather > Memphis > Past weeks

Flag for USA Past Weather in Memphis, Tennessee, USA — Yesterday and Last 2 Weeks

Now
81 °F

Clear.


Feels Like: 85 °F
Forecast: 76 / 88 °F
Wind: 6 mph from Southeast

Location: Memphis International Airport

Current Time: Jul 27, 2016 at 4:44:59 AM

Latest Report: Jul 27, 2016 at 3:54 AM


Visibility: 10 mi

Pressure: 29.92 "Hg

Humidity: 74%

Dew Point: 72 °F

Location of MemphisLocation

Past Weather in Memphis — Graph

°F

Memphis Temperature Yesterday

Maximum temperature yesterday: 96 °F (at 2:54 PM)
Minimum temperature yesterday: 80 °F (at 5:54 AM)
Average temperature yesterday: 87 °F

High & Low Weather Summary for the Past Weeks

 TemperatureHumidityPressure
High99 °F (Jul 22, 3:54 PM)91% (Jul 24, 4:54 AM)30.22 "Hg (Jul 24, 4:54 AM)
Low73 °F (Jul 14, 10:54 AM)44% (Jul 16, 3:54 PM)29.89 "Hg (Jul 23, 6:54 PM)
Average85 °F68%30.03 "Hg
* Reported Jul 12 2:54 AM — Jul 27 2:54 AM, Memphis, Weather by CustomWeather, © 2016

Note: Actual official high and low records may vary slightly from our data, if they occured in-between our weather recording intervals... More about our weather records

Advertising

Memphis Weather History for the Previous 24 Hours

Scroll right to see more
 ConditionsComfort  
Time TempWeatherWind HumidityBarometerVisibility
2:54 AM
Wed, Jul 27
82 °FPassing clouds.5 mph72%29.90 "Hg10 mi
1:54 AM82 °FClear.No wind70%29.91 "Hg10 mi
12:54 AM84 °FPassing clouds.6 mph67%29.93 "Hg10 mi
11:54 PM
Tue, Jul 26
85 °FPassing clouds.No wind65%29.94 "Hg10 mi
10:54 PM86 °FPassing clouds.10 mph63%29.93 "Hg10 mi
9:54 PM86 °FPassing clouds.7 mph67%29.95 "Hg10 mi
8:54 PM84 °FPassing clouds.5 mph72%29.94 "Hg10 mi
7:54 PM86 °FScattered clouds.3 mph63%29.91 "Hg10 mi
6:54 PM87 °FScattered clouds.7 mph61%29.92 "Hg10 mi
5:54 PM93 °FScattered clouds.8 mph49%29.91 "Hg10 mi
4:54 PM94 °FScattered clouds.6 mph48%29.91 "Hg10 mi
3:54 PM96 °FScattered clouds.9 mph46%29.90 "Hg10 mi
2:54 PM96 °FScattered clouds.8 mph44%29.93 "Hg10 mi
1:54 PM94 °FScattered clouds.13 mph48%29.95 "Hg10 mi
12:54 PM93 °FScattered clouds.8 mph50%29.97 "Hg10 mi
11:54 AM94 °FPassing clouds.No wind54%29.98 "Hg10 mi
10:54 AM93 °FScattered clouds.No wind54%29.99 "Hg10 mi
9:54 AM89 °FScattered clouds.3 mph63%29.99 "Hg10 mi
8:54 AM86 °FScattered clouds.3 mph70%29.99 "Hg10 mi
7:54 AM84 °FScattered clouds.3 mph70%30.00 "Hg10 mi
6:54 AM81 °FScattered clouds.No wind74%29.99 "Hg10 mi
5:54 AM80 °FPassing clouds.No wind76%29.98 "Hg10 mi
4:54 AM82 °FClear.5 mph74%29.96 "Hg10 mi
Weather by CustomWeather, © 2016

See weather overviewHow to use our weather pages